Location: Jackson
(42.2460°N, 84.4010°W)
Time: 08:01:36
(UTC-05:00)

BlueWalker 3 - Pass Details

Date: 22 January 2026
Orbit: 451 x 461 km, 53.2° (Epoch: 13 February)

Event Time Altitude Azimuth Distance (km) Brightness Sun altitude
Rises 19:36:24 0° 251° (WSW) 2,449 6.9 -21.5°
Reaches altitude 10° 19:38:37 10° 260° (W) 1,578 5.6 -21.9°
Maximum altitude 19:41:58 39° 330° (NNW) 692 2.7 -22.5°
Enters shadow 19:42:00 39° 332° (NNW) 692 2.7 -22.5°
